Flippin, AR

2:58 PM CDT on August 17, 2017 (GMT -0500)
Marion County Regional

Weather History for KFLP - January, 2002

Change the Weather History Date:

Friday, January 18, 2002

  Actual Average Record
Temperature  
Mean Temperature 29 °F -  
Max Temperature 37 °F 45 °F 66 °F (2015)
Min Temperature 21 °F 25 °F 3 °F (2003)
Degree Days  
Heating Degree Days 36    
Moisture  
Dew Point 21 °F    
Average Humidity 74    
Maximum Humidity 86    
Minimum Humidity 52    
Precipitation  
Precipitation 0.00 in - - ()
Sea Level Pressure  
Sea Level Pressure 30.27 in    
Wind  
Wind Speed 1 mph (East)    
Max Wind Speed 9 mph    
Max Gust Speed -    
Visibility 7 miles    
Events      
Averages and records for this station are not official NWS values.
T = Trace of Precipitation, MM = Missing Value Source: NWS Daily Summary

Daily Weather History Graph

Daily Weather History Graph

Search for Another Location

Airport or City:

Trip Planner

Search our weather history database for the weather conditions in past years. The results will help you decide how hot, cold, wet, or windy it might be!

Date:

Astronomy

Jan. 18, 2002 Rise Set
Actual Time 7:19 AM CST 5:22 PM CST
Civil Twilight 6:52 AM CST 5:49 PM CST
Nautical Twilight 6:20 AM CST 6:21 PM CST
Astronomical Twilight 5:49 AM CST 6:52 PM CST
Moon 10:28 AM CST (1/18) 10:14 PM CST (1/18)
Length of Visible Light 10h 57m
Length of Day
10h 02m
Waxing Crescent, 23% of the Moon is Illuminated
Jan 18
Waxing Crescent
Jan 21
First Quarter
Jan 28
Full
Feb 4
Last Quarter
Feb 12
New

Hourly Weather History & Observations

Time (CST) Temp. Windchill Dew Point Humidity Pressure Visibility Wind Dir Wind Speed Gust Speed Precip Events Conditions
12:15 AM 28.4 °F - 21.2 °F 74% 30.30 in 10.0 mi Calm Calm - N/A   Clear
12:35 AM 28.4 °F - 21.2 °F 74% 30.31 in 10.0 mi Calm Calm - N/A   Clear
12:55 AM 26.6 °F - 21.2 °F 80% 30.30 in 10.0 mi Calm Calm - N/A   Clear
1:15 AM 26.6 °F - 21.2 °F 80% 30.31 in 10.0 mi Calm Calm - N/A   Clear
1:35 AM 26.6 °F - 21.2 °F 80% 30.31 in 10.0 mi Calm Calm - N/A   Clear
1:55 AM 26.6 °F - 21.2 °F 80% 30.31 in 10.0 mi Calm Calm - N/A   Clear
2:15 AM 26.6 °F - 21.2 °F 80% 30.32 in 10.0 mi Calm Calm - N/A   Clear
2:35 AM 26.6 °F - 19.4 °F 74% 30.32 in 10.0 mi Calm Calm - N/A   Clear
2:55 AM 26.6 °F - 19.4 °F 74% 30.32 in 10.0 mi Calm Calm - N/A   Clear
3:15 AM 24.8 °F - 19.4 °F 80% 30.32 in 10.0 mi Calm Calm - N/A   Clear
3:35 AM 26.6 °F - 21.2 °F 80% 30.31 in 10.0 mi Calm Calm - N/A   Clear
3:55 AM 21.2 °F - 15.8 °F 80% 30.31 in 7.0 mi Calm Calm - N/A   Clear
4:15 AM 23.0 °F - 17.6 °F 80% 30.30 in 6.0 mi Calm Calm - N/A   Clear
4:35 AM 23.0 °F - 17.6 °F 80% 30.30 in 6.0 mi Calm Calm - N/A   Clear
4:55 AM 23.0 °F - 17.6 °F 80% 30.30 in 5.0 mi Calm Calm - N/A   Partly Cloudy
5:15 AM 23.0 °F - 17.6 °F 80% 30.30 in 5.0 mi Calm Calm - N/A   Mostly Cloudy
5:35 AM 21.2 °F - 15.8 °F 80% 30.31 in 6.0 mi Calm Calm - N/A   Overcast
5:55 AM 21.2 °F - 15.8 °F 80% 30.31 in 6.0 mi Calm Calm - N/A   Overcast
6:15 AM 21.2 °F - 17.6 °F 86% 30.31 in 1.8 mi Calm Calm - N/A   Overcast
6:35 AM 23.0 °F - 17.6 °F 80% 30.31 in 0.2 mi Calm Calm - N/A   Overcast
6:55 AM 24.8 °F - 19.4 °F 80% 30.31 in 0.2 mi Calm Calm - N/A   Overcast
7:15 AM 24.8 °F - 19.4 °F 80% 30.31 in 0.2 mi Calm Calm - N/A   Overcast
7:35 AM 24.8 °F - 19.4 °F 80% 30.32 in 0.2 mi Calm Calm - N/A   Overcast
7:55 AM 24.8 °F - 17.6 °F 74% 30.32 in 0.2 mi Calm Calm - N/A   Overcast
8:15 AM 24.8 °F - 17.6 °F 74% 30.33 in 0.2 mi Calm Calm - N/A   Overcast
8:35 AM 23.0 °F - 17.6 °F 80% 30.33 in 0.2 mi Calm Calm - N/A   Overcast
8:55 AM 23.0 °F - 17.6 °F 80% 30.34 in 0.2 mi Calm Calm - N/A   Overcast
9:15 AM 23.0 °F - 17.6 °F 80% 30.34 in 0.2 mi Calm Calm - N/A   Overcast
9:35 AM 24.8 °F - 17.6 °F 74% 30.34 in 0.2 mi Calm Calm - N/A   Overcast
9:55 AM 24.8 °F - 19.4 °F 80% 30.35 in 0.2 mi Calm Calm - N/A   Overcast
10:15 AM 24.8 °F - 19.4 °F 80% 30.34 in 0.2 mi Calm Calm - N/A   Overcast
10:35 AM 26.6 °F - 21.2 °F 80% 30.34 in 2.5 mi Calm Calm - N/A   Overcast
10:55 AM 28.4 °F - 23.0 °F 80% 30.33 in 4.0 mi Calm Calm - N/A   Overcast
11:15 AM 28.4 °F - 21.2 °F 74% 30.32 in 5.0 mi Calm Calm - N/A   Overcast
11:35 AM 28.4 °F - 23.0 °F 80% 30.31 in 5.0 mi Calm Calm - N/A   Mostly Cloudy
11:55 AM 30.2 °F - 24.8 °F 80% 30.30 in 8.0 mi Calm Calm - N/A   Scattered Clouds
12:15 PM 30.2 °F - 26.6 °F 86% 30.28 in 9.0 mi Calm Calm - N/A   Clear
12:35 PM 32.0 °F - 26.6 °F 80% 30.27 in 8.0 mi Calm Calm - N/A   Clear
12:55 PM 33.8 °F 29.6 °F 26.6 °F 75% 30.25 in 10.0 mi ESE 4.6 mph - N/A   Partly Cloudy
1:15 PM 35.6 °F 32.8 °F 26.6 °F 70% 30.25 in 10.0 mi SSE 3.5 mph - N/A   Scattered Clouds
1:35 PM 35.6 °F 31.7 °F 26.6 °F 70% 30.22 in 10.0 mi East 4.6 mph - N/A   Mostly Cloudy
1:55 PM 35.6 °F 31.7 °F 26.6 °F 70% 30.20 in 10.0 mi East 4.6 mph - N/A   Scattered Clouds
2:15 PM 37.4 °F 32.1 °F 26.6 °F 65% 30.20 in 10.0 mi East 6.9 mph - N/A   Partly Cloudy
2:35 PM 37.4 °F 32.8 °F 24.8 °F 60% 30.19 in 10.0 mi ESE 5.8 mph - N/A   Partly Cloudy
2:55 PM 37.4 °F 32.1 °F 24.8 °F 60% 30.17 in 10.0 mi East 6.9 mph - N/A   Partly Cloudy
3:15 PM 35.6 °F 30.7 °F 24.8 °F 65% 30.15 in 10.0 mi ESE 5.8 mph - N/A   Mostly Cloudy
3:35 PM 37.4 °F 32.1 °F 24.8 °F 60% 30.16 in 10.0 mi East 6.9 mph - N/A   Partly Cloudy
3:55 PM 37.4 °F 33.8 °F 24.8 °F 60% 30.16 in 10.0 mi East 4.6 mph - N/A   Clear
4:15 PM 37.4 °F - 24.8 °F 60% 30.18 in 10.0 mi Calm Calm - N/A   Partly Cloudy
4:35 PM 37.4 °F 33.8 °F 26.6 °F 65% 30.17 in 10.0 mi ENE 4.6 mph - N/A   Mostly Cloudy
4:55 PM 37.4 °F 33.8 °F 26.6 °F 65% 30.14 in 10.0 mi East 4.6 mph - N/A   Overcast
5:15 PM 37.4 °F 34.9 °F 24.8 °F 60% 30.12 in 10.0 mi ENE 3.5 mph - N/A   Mostly Cloudy
5:35 PM 35.6 °F 29.9 °F 24.8 °F 65% 30.11 in 10.0 mi East 6.9 mph - N/A   Mostly Cloudy
5:55 PM 37.4 °F 30.8 °F 21.2 °F 52% 30.08 in 10.0 mi East 9.2 mph - N/A   Scattered Clouds
6:15 PM 37.4 °F 33.8 °F 21.2 °F 52% 30.10 in 10.0 mi East 4.6 mph - N/A   Mostly Cloudy
6:35 PM 35.6 °F 31.7 °F 21.2 °F 56% 30.11 in 10.0 mi East 4.6 mph - N/A   Overcast
6:55 PM 35.6 °F 32.8 °F 23.0 °F 60% 30.11 in 10.0 mi ENE 3.5 mph - N/A   Overcast
7:15 PM 35.6 °F - 23.0 °F 60% 30.11 in 10.0 mi Calm Calm - N/A   Overcast
7:35 PM 33.8 °F 27.7 °F 24.8 °F 70% 30.09 in 1.5 mi East 6.9 mph 20.7 mph N/A   Overcast
7:55 PM 32.0 °F 25.6 °F 24.8 °F 75% 30.08 in 2.5 mi East 6.9 mph - 0.01 in   Overcast
8:15 PM 32.0 °F 27.5 °F 24.8 °F 75% 30.06 in 5.0 mi NE 4.6 mph - 0.01 in   Mostly Cloudy
8:35 PM 32.0 °F 24.8 °F 26.6 °F 80% 30.05 in 5.0 mi NE 8.1 mph - 0.02 in   Mostly Cloudy
8:55 PM 32.0 °F 25.6 °F 26.6 °F 80% 30.04 in 4.0 mi ENE 6.9 mph - 0.06 in   Overcast
9:15 PM 32.0 °F 27.5 °F 26.6 °F 80% 30.04 in 3.0 mi ENE 4.6 mph - 0.04 in   Overcast
9:35 PM 32.0 °F 28.7 °F 26.6 °F 80% 30.04 in 3.0 mi East 3.5 mph - 0.06 in   Overcast
9:55 PM 32.0 °F 28.7 °F 26.6 °F 80% 30.04 in 5.0 mi ENE 3.5 mph - 0.06 in   Overcast
10:15 PM 32.0 °F 28.7 °F 26.6 °F 80% 30.04 in 4.0 mi East 3.5 mph - N/A   Overcast
10:35 PM 32.0 °F 28.7 °F 26.6 °F 80% 30.05 in 5.0 mi NE 3.5 mph - 0.01 in   Overcast
10:55 PM 32.0 °F 27.5 °F 26.6 °F 80% 30.03 in 3.0 mi NE 4.6 mph - 0.01 in   Overcast
11:15 PM 32.0 °F 28.7 °F 26.6 °F 80% 30.03 in 3.0 mi East 3.5 mph - N/A   Overcast
11:35 PM 32.0 °F 25.6 °F 26.6 °F 80% 30.02 in 4.0 mi ESE 6.9 mph - N/A   Overcast
11:55 PM 32.0 °F 27.5 °F 26.6 °F 80% 30.00 in 3.0 mi SE 4.6 mph - N/A   Overcast